Temp
13 12 12 12 11 11 11 10 11 11 11 12 11 11 11 11 10 10 9 9 8 7 7 7 6 5 5 5 4 4 3 3 3 2 2 2 2 2 1 1 1 1 1
12 12 11 11 11 11 11 11 11 11 10 11 11 11 10 9 10 8 9 8 8 8 7 6 6 5 4 4 4 3 3 3 3 3 3 2 2 2 1 1 1 1 1
12 11 12 11 11 11 11 11 11 10 10 10 10 10 9 9 9 9 8 8 7 7 7 6 6 5 5 4 4 4 3 3 3 3 2 1 1 1 1 1 1 1 1
12 11 11 11 11 11 11 11 11 10 10 10 10 9 9 9 8 8 8 7 6 6 6 6 5 5 5 4 4 4 3 3 3 2 1 1 1 0 1 1 0 0 0
11 11 11 11 11 11 10 10 10 10 10 10 9 9 9 8 8 7 7 7 7 5 5 5 5 4 4 4 4 3 3 3 2 2 2 1 -0 -1 -1 -1 -1 -1 -1
11 11 11 11 11 10 10 10 10 10 10 10 10 10 9 9 8 7 7 6 6 6 5 4 3 3 3 3 2 2 2 2 2 1 -0 -1 -1 -1 -1 -2 -2 -1 -1
11 11 11 11 11 10 10 10 10 10 10 10 9 9 9 8 8 7 6 6 6 5 5 4 4 3 2 2 2 1 1 1 0 -0 -1 -1 -2 -2 -3 -2 -2 -2 -2
12 11 11 11 11 11 10 10 10 10 9 9 9 9 9 8 7 8 7 6 6 5 4 4 3 3 3 2 1 1 0 0 -0 -1 -1 -2 -2 -3 -3 -3 -3 -3 -3
12 11 11 11 11 11 10 10 10 9 9 8 9 8 8 8 7 8 7 6 5 6 5 4 3 3 2 1 1 0 0 -0 -1 -1 -2 -2 -2 -2 -4 -4 -4 -4 -4
11 11 10 10 10 10 10 10 9 9 9 8 8 7 7 7 7 7 6 6 6 5 5 4 3 2 2 1 1 0 0 -0 -1 -1 -2 -2 -2 -3 -3 -4 -5 -5 -4
11 12 10 10 10 9 9 9 8 7 7 8 7 7 6 6 6 6 6 6 5 5 5 3 3 2 2 1 1 0 0 -0 -1 -1 -2 -2 -2 -3 -3 -4 -5 -5 -5
12 11 11 10 9 9 9 9 8 7 6 7 6 6 6 5 6 6 6 5 6 5 5 4 3 2 2 1 1 0 -0 -0 -1 -2 -2 -2 -3 -3 -3 -4 -5 -6 -6
12 11 12 11 11 9 9 10 7 6 6 5 5 5 5 4 5 5 5 5 5 5 5 4 4 3 2 1 1 0 -0 -1 -1 -2 -2 -3 -4 -4 -4 -4 -5 -6 -7
14 14 12 10 9 11 10 9 6 6 6 5 5 4 4 3 4 4 4 4 3 3 3 3 3 3 2 1 1 0 -0 -1 -1 -2 -2 -4 -4 -5 -5 -5 -5 -7 -7
12 12 11 11 10 10 9 8 7 6 6 5 4 4 3 3 3 2 3 3 3 2 2 2 2 2 2 2 1 0 -0 -1 -1 -2 -3 -4 -5 -5 -5 -6 -6 -7 -8
12 11 10 10 10 9 8 7 6 5 5 3 3 2 2 2 1 2 2 2 2 2 2 1 1 1 1 1 1 0 -1 -1 -2 -3 -4 -4 -5 -5 -5 -6 -6 -7 -7
11 10 9 9 9 8 7 6 5 5 3 2 2 1 1 1 1 1 2 2 2 1 1 1 1 1 1 1 0 -0 -1 -1 -2 -3 -3 -4 -5 -5 -5 -6 -6 -7 -7
9 9 9 8 8 7 6 5 4 3 2 1 1 1 0 1 1 1 1 1 1 1 1 1 1 0 0 0 0 -0 -1 -1 -2 -3 -4 -4 -5 -5 -5 -6 -6 -7 -7
8 8 7 7 7 6 5 3 3 2 1 0 0 0 0 0 0 0 0 1 1 0 0 0 -0 -0 -0 -0 -0 -1 -1 -2 -2 -3 -4 -4 -4 -5 -5 -6 -6 -6 -6
8 8 7 6 6 5 4 3 2 1 -0 -0 0 0 -0 -0 0 0 -0 -0 -0 -1 -1 -1 -1 -0 -1 -1 -1 -1 -1 -2 -2 -3 -4 -4 -5 -5 -6 -6 -6 -6 -6
7 7 6 6 5 4 3 2 1 1 1 -0 -0 -1 -1 -0 -1 -1 -1 -1 -1 -1 -1 -1 -1 -1 -1 -1 -1 -1 -1 -2 -3 -3 -3 -5 -5 -5 -6 -6 -6 -6 -6
6 6 6 5 4 4 3 1 1 1 -0 -1 -1 -1 -1 -1 -1 -0 -1 -1 -1 -1 -1 -1 -1 -1 -2 -2 -2 -1 -2 -2 -3 -4 -4 -5 -5 -6 -6 -6 -6 -6 -7
5 5 4 4 2 1 1 1 0 -0 -1 -1 -1 -1 -2 -1 -1 -1 -1 -1 -1 -1 -1 -1 -1 -1 -1 -2 -2 -3 -3 -3 -3 -4 -5 -5 -6 -6 -6 -6 -6 -6 -7
3 3 2 2 1 1 -0 -1 -1 -1 -2 -1 -2 -2 -2 -2 -2 -2 -2 -2 -2 -2 -2 -2 -2 -2 -2 -2 -2 -3 -4 -4 -5 -5 -5 -6 -6 -6 -6 -6 -7 -7 -8
2 1 0 -0 -0 -1 -1 -1 -1 -1 -2 -3 -3 -3 -3 -3 -3 -3 -3 -3 -3 -3 -3 -4 -3 -3 -3 -3 -3 -4 -5 -6 -5 -4 -5 -6 -6 -6 -6 -7 -7 -8 -8
0 -0 -0 -0 -0 -1 -1 -2 -2 -3 -3 -2 -2 -2 -2 -3 -3 -4 -4 -5 -5 -5 -5 -5 -5 -4 -4 -4 -4 -4 -4 -6 -5 -5 -5 -7 -7 -7 -7 -7 -8 -8 -8
Height
1569 1570 1572 1574 1576 1577 1579 1579 1579 1580 1579 1579 1579 1578 1579 1579 1581 1579 1579 1579 1580 1582 1580 1580 1581 1581 1577 1577 1578 1578 1578 1578 1576 1576 1576 1575 1575 1573 1572 1571 1569 1568 1567
1568 1570 1573 1574 1576 1577 1578 1578 1579 1580 1581 1579 1579 1578 1579 1579 1579 1580 1578 1578 1579 1579 1578 1579 1581 1579 1577 1576 1576 1577 1577 1576 1575 1575 1574 1574 1574 1573 1571 1570 1568 1567 1567
1567 1569 1571 1573 1575 1576 1578 1578 1579 1580 1579 1579 1579 1579 1578 1580 1578 1579 1576 1576 1576 1577 1576 1578 1578 1577 1575 1575 1574 1575 1575 1574 1573 1573 1572 1572 1571 1570 1569 1568 1567 1566 1566
1565 1569 1570 1572 1574 1574 1575 1577 1578 1578 1578 1578 1578 1577 1578 1578 1578 1578 1578 1576 1574 1575 1575 1574 1574 1574 1573 1573 1572 1573 1573 1572 1571 1570 1569 1568 1567 1566 1566 1565 1564 1563 1563
1563 1565 1569 1570 1571 1571 1573 1575 1576 1576 1575 1577 1578 1576 1575 1577 1577 1576 1575 1576 1575 1571 1571 1571 1570 1570 1570 1570 1570 1569 1569 1569 1568 1567 1566 1565 1564 1563 1562 1561 1560 1559 1559
1560 1562 1566 1566 1568 1568 1571 1571 1573 1573 1573 1574 1575 1575 1573 1575 1574 1573 1573 1572 1571 1571 1571 1568 1566 1566 1566 1566 1566 1566 1566 1566 1565 1564 1563 1562 1560 1559 1558 1557 1556 1555 1554
1556 1559 1562 1563 1565 1565 1567 1569 1568 1568 1570 1572 1572 1572 1570 1571 1570 1569 1568 1569 1568 1566 1566 1566 1566 1563 1562 1562 1562 1562 1563 1563 1562 1561 1559 1558 1556 1555 1553 1552 1551 1550 1549
1552 1555 1558 1558 1560 1563 1566 1565 1565 1565 1566 1567 1568 1570 1568 1568 1567 1565 1565 1565 1565 1564 1563 1562 1561 1562 1561 1560 1557 1558 1557 1558 1558 1557 1555 1553 1552 1550 1548 1546 1545 1544 1543
1550 1549 1553 1555 1556 1559 1559 1560 1562 1562 1563 1565 1565 1567 1565 1565 1563 1559 1561 1562 1561 1561 1561 1561 1559 1558 1557 1557 1556 1554 1553 1553 1553 1553 1551 1549 1547 1544 1542 1541 1539 1537 1536
1544 1545 1549 1552 1553 1555 1557 1557 1560 1560 1561 1562 1563 1563 1562 1562 1560 1561 1557 1557 1556 1556 1555 1556 1556 1556 1555 1554 1553 1550 1550 1550 1549 1548 1547 1544 1541 1539 1537 1535 1533 1531 1530
1539 1542 1547 1548 1549 1551 1553 1555 1556 1557 1558 1558 1560 1559 1558 1557 1559 1559 1556 1555 1553 1552 1551 1550 1550 1551 1551 1551 1550 1547 1546 1545 1545 1543 1542 1539 1537 1534 1531 1529 1527 1525 1523
1532 1534 1538 1541 1541 1543 1545 1547 1545 1548 1549 1553 1553 1553 1551 1553 1554 1555 1553 1551 1551 1551 1549 1547 1546 1545 1545 1545 1545 1543 1541 1541 1540 1538 1536 1533 1531 1528 1525 1522 1520 1518 1517
1524 1526 1528 1530 1532 1536 1537 1537 1539 1540 1544 1546 1545 1546 1546 1549 1550 1550 1549 1546 1546 1546 1547 1547 1544 1541 1540 1540 1539 1537 1535 1534 1533 1531 1529 1527 1525 1522 1519 1516 1514 1511 1509
1518 1521 1525 1528 1529 1526 1527 1529 1531 1534 1536 1537 1538 1540 1541 1542 1544 1545 1545 1542 1540 1540 1541 1541 1541 1539 1536 1534 1533 1532 1530 1529 1528 1526 1523 1521 1519 1516 1513 1510 1508 1504 1502
1512 1516 1519 1520 1521 1522 1522 1523 1525 1528 1531 1531 1532 1535 1537 1538 1540 1540 1540 1539 1536 1534 1533 1535 1534 1534 1534 1530 1528 1526 1525 1524 1523 1520 1518 1515 1512 1509 1508 1505 1501 1497 1494
1507 1509 1511 1513 1514 1516 1517 1519 1520 1523 1524 1526 1528 1530 1530 1531 1534 1534 1533 1533 1532 1529 1525 1527 1528 1527 1527 1525 1522 1520 1519 1518 1515 1513 1511 1509 1506 1504 1502 1499 1496 1491 1487
1502 1502 1504 1506 1507 1509 1510 1513 1515 1518 1519 1522 1521 1521 1526 1528 1526 1527 1527 1527 1528 1526 1522 1520 1521 1521 1520 1518 1516 1515 1513 1510 1508 1507 1505 1503 1500 1498 1495 1493 1490 1487 1482
1496 1497 1499 1500 1502 1503 1504 1506 1510 1512 1513 1518 1518 1518 1521 1522 1521 1521 1521 1520 1521 1521 1519 1515 1514 1513 1512 1511 1508 1507 1506 1504 1502 1500 1499 1497 1494 1492 1489 1487 1484 1481 1478
1491 1493 1494 1495 1496 1498 1500 1502 1505 1507 1510 1510 1512 1517 1517 1516 1516 1515 1515 1514 1514 1513 1512 1509 1505 1505 1504 1503 1501 1498 1497 1495 1494 1493 1492 1491 1489 1486 1484 1481 1478 1475 1472
1486 1488 1490 1490 1491 1494 1495 1498 1500 1503 1505 1508 1512 1512 1511 1512 1511 1510 1509 1508 1507 1505 1504 1501 1498 1495 1495 1494 1492 1490 1488 1487 1486 1485 1485 1484 1483 1481 1478 1475 1472 1469 1466
1482 1483 1485 1487 1488 1489 1491 1493 1497 1499 1503 1505 1506 1507 1507 1507 1506 1504 1502 1500 1499 1497 1495 1493 1489 1487 1485 1484 1483 1481 1479 1478 1477 1477 1476 1476 1475 1473 1471 1469 1466 1463 1460
1477 1479 1481 1483 1484 1486 1489 1492 1495 1498 1501 1500 1501 1501 1500 1499 1497 1495 1494 1492 1492 1489 1486 1484 1479 1476 1475 1475 1474 1472 1471 1470 1469 1468 1468 1468 1468 1465 1464 1463 1461 1456 1453
1475 1477 1478 1480 1482 1485 1488 1491 1494 1495 1496 1496 1496 1495 1493 1492 1490 1489 1487 1485 1483 1480 1478 1474 1469 1465 1464 1464 1465 1462 1460 1459 1460 1461 1460 1459 1460 1457 1457 1456 1453 1451 1448
1474 1475 1477 1479 1481 1484 1487 1489 1491 1491 1492 1492 1491 1489 1488 1486 1487 1484 1479 1475 1471 1469 1466 1464 1460 1455 1454 1454 1453 1452 1452 1451 1453 1452 1453 1451 1452 1451 1450 1448 1446 1444 1440
1472 1475 1477 1480 1482 1483 1486 1487 1487 1486 1486 1486 1485 1484 1482 1479 1477 1473 1469 1464 1460 1456 1455 1452 1449 1446 1442 1440 1442 1442 1441 1442 1443 1442 1444 1445 1444 1444 1443 1440 1439 1438 1435
1473 1475 1476 1479 1480 1481 1482 1482 1483 1481 1480 1479 1478 1476 1474 1472 1468 1465 1461 1456 1450 1445 1443 1438 1436 1433 1431 1429 1429 1430 1431 1432 1435 1434 1435 1438 1439 1438 1434 1433 1432 1431 1429
Wind_Speed
11 8 5 6 9 5 7 10 4 2 2 3 4 7 8 8 10 6 8 5 4 6 5 4 3 3 5 5 6 6 6 6 8 9 9 10 11 13 14 15 15 17 17
8 10 14 10 10 14 7 5 3 3 3 3 2 5 6 2 4 4 7 7 2 7 11 8 7 5 4 5 5 7 8 9 12 13 14 13 12 12 14 14 15 16 16
14 16 17 14 14 8 10 11 12 10 7 7 6 1 3 2 2 6 2 6 6 2 7 11 12 12 12 11 12 13 13 15 17 16 14 10 10 9 10 12 14 16 17
14 17 13 16 14 16 18 16 12 6 6 3 4 2 7 5 5 3 7 2 4 4 6 7 7 12 13 14 15 17 18 18 18 16 14 14 15 14 15 15 17 17 19
19 18 15 16 18 19 14 12 11 9 9 9 10 11 10 6 10 3 11 10 14 3 4 6 10 11 10 11 13 15 18 19 16 15 15 14 13 13 14 15 16 18 19
20 19 17 19 22 16 16 17 15 15 12 9 8 12 14 12 9 11 12 9 7 12 12 8 9 9 10 11 13 15 12 15 13 14 11 12 13 15 18 19 20 20 20
22 21 19 22 21 18 17 17 19 19 16 18 16 11 15 17 15 13 12 12 10 15 10 14 15 9 9 11 15 14 15 15 18 13 13 15 16 18 19 20 20 21 22
24 23 21 23 19 20 20 21 23 20 14 16 10 11 10 11 17 11 13 15 14 17 14 13 14 14 16 15 16 15 16 17 17 18 20 20 22 19 20 21 22 23 24
24 24 20 23 23 19 21 26 26 20 15 18 15 9 3 3 10 14 17 16 15 18 18 12 15 17 14 12 14 17 19 17 23 23 24 26 25 25 22 22 23 23 24
26 24 22 22 23 18 20 25 25 21 19 16 11 11 6 10 10 7 13 16 20 20 19 16 18 16 14 14 15 18 22 23 24 24 27 29 29 27 25 24 23 24 25
27 26 22 22 21 20 21 15 16 17 19 22 19 14 13 18 15 16 17 11 16 19 16 15 16 17 14 17 18 20 22 23 25 31 31 31 29 27 26 26 25 25 25
27 27 25 25 26 27 27 27 31 31 30 24 20 17 15 13 15 16 19 17 17 18 13 14 15 16 17 15 17 21 24 26 29 31 35 31 30 29 30 28 27 26 26
25 30 30 30 27 21 27 34 33 34 29 27 23 28 24 12 20 20 20 19 20 21 21 20 21 21 23 18 19 22 24 25 29 36 34 35 31 32 29 28 28 27 26
31 26 26 27 26 33 33 32 33 32 31 31 28 23 20 17 18 18 19 17 19 21 22 21 20 20 17 15 19 21 23 28 34 38 40 35 32 32 30 29 30 30 28
34 28 26 30 33 34 31 31 33 35 31 26 20 17 15 21 20 17 20 20 21 22 23 22 20 17 15 19 20 22 26 28 33 37 36 32 32 32 33 34 36 33 31
32 30 30 31 34 32 28 30 33 33 28 21 14 16 21 17 22 16 21 22 21 22 26 22 21 20 22 24 24 25 27 30 32 34 32 31 29 33 34 35 34 31 29
29 28 28 30 30 27 28 31 33 28 23 17 20 22 22 20 20 22 23 23 25 26 28 28 23 24 24 25 24 26 27 29 31 32 33 30 32 32 32 33 31 28 26
22 22 23 26 27 27 28 30 28 25 21 22 21 23 18 25 17 19 23 28 30 27 26 30 31 29 30 29 30 29 29 30 33 33 31 28 27 27 31 34 30 27 26
19 18 19 24 26 24 22 22 24 21 20 20 25 17 23 15 19 22 25 28 27 28 29 30 33 32 32 32 29 28 29 29 29 31 25 21 24 28 29 28 29 28 26
17 19 21 24 24 22 18 21 20 16 22 23 22 21 17 18 22 23 26 30 32 34 34 36 38 39 39 33 32 30 29 28 28 22 23 31 31 24 25 27 26 26 28
17 17 19 22 21 17 17 18 19 20 23 23 26 20 17 19 23 26 30 35 35 34 33 33 37 37 37 35 33 31 29 26 25 29 34 30 24 27 29 23 24 27 26
9 7 9 9 11 12 10 13 15 17 21 20 22 25 26 28 28 31 30 31 31 33 39 42 47 42 41 38 36 32 31 28 29 28 26 29 27 32 22 23 22 23 24
8 6 5 5 7 8 9 10 14 18 19 22 26 29 28 21 19 23 27 30 34 35 37 41 44 50 49 43 39 32 30 29 30 30 25 31 32 24 21 23 25 27 29
8 7 7 7 7 8 9 11 12 14 19 23 24 18 20 23 25 27 30 34 38 41 43 42 43 46 47 43 41 34 29 28 30 31 31 32 24 24 24 26 25 27 24
7 6 5 6 7 9 9 11 15 16 19 18 19 20 22 25 27 31 34 38 42 45 44 42 43 41 45 45 37 37 32 28 35 34 29 25 24 25 24 27 28 22 19
11 11 9 7 4 7 8 10 13 18 22 24 25 27 28 30 33 35 39 42 46 49 47 48 42 42 41 43 43 39 39 32 35 34 33 25 22 23 28 30 10 16 24
Wind_Direction
182 162 187 207 167 161 179 195 214 159 69 104 89 73 80 103 140 278 306 341 234 186 216 236 256 295 325 342 331 335 357 7 0 10 7 2 351 335 342 341 337 350 354
199 173 195 196 188 216 193 198 208 107 109 293 125 120 142 119 129 195 293 320 333 212 201 205 218 231 261 305 297 293 306 309 314 319 322 332 336 338 338 337 338 341 340
208 196 215 197 199 184 201 196 201 194 206 182 261 132 45 34 345 169 269 282 317 271 235 244 254 262 271 275 282 294 296 298 301 305 312 321 309 300 309 317 322 319 321
226 213 187 205 205 203 206 213 214 201 200 207 240 246 208 262 291 265 201 204 260 253 273 280 267 274 274 276 280 284 286 291 296 301 303 305 306 310 295 289 299 307 309
225 209 194 212 210 217 205 207 198 208 220 211 242 227 236 242 284 233 246 220 206 268 217 261 281 287 288 285 288 286 283 284 285 290 298 303 316 319 321 317 316 314 311
214 213 198 221 221 211 210 208 211 211 219 232 215 256 273 278 272 237 256 256 249 241 249 282 275 298 301 305 303 302 296 278 280 293 299 308 315 313 309 310 312 310 307
206 223 200 230 237 210 221 222 211 224 217 220 225 254 274 268 269 249 243 246 233 255 271 261 278 275 278 292 299 297 298 295 298 292 300 305 310 312 313 312 311 309 307
216 228 209 232 244 218 217 225 230 233 226 243 226 247 273 239 243 274 243 245 225 237 255 281 287 251 256 279 288 300 294 296 295 306 310 309 312 314 313 311 308 306 303
221 229 225 223 245 228 223 234 238 229 219 231 239 236 250 274 311 280 235 238 248 268 277 270 256 273 283 277 277 281 286 289 298 304 306 310 312 313 312 310 309 306 304
225 228 233 232 235 243 224 242 247 235 215 234 237 258 269 281 284 280 245 252 243 251 265 269 247 240 245 269 279 266 274 285 290 298 305 312 313 313 311 311 308 306 304
233 236 221 239 239 228 223 242 241 241 227 218 224 217 265 309 270 270 279 276 263 255 272 253 245 249 235 251 259 268 274 281 289 299 304 307 310 312 311 309 307 305 302
236 229 220 225 234 232 238 242 248 239 235 236 227 261 296 270 255 257 259 269 270 273 275 247 237 241 262 258 252 262 271 278 292 298 303 308 315 312 311 308 305 304 302
226 235 239 234 238 258 269 276 247 236 240 229 239 273 279 252 257 257 263 266 269 267 262 267 270 276 275 266 256 262 272 286 290 301 303 310 310 308 310 307 305 303 301
246 256 247 236 247 273 261 261 246 245 247 248 260 262 266 236 247 252 260 262 270 269 264 265 267 275 274 257 257 263 270 281 290 302 305 304 306 309 312 312 313 306 300
247 249 246 244 262 259 259 256 249 244 259 255 251 267 238 244 262 255 258 260 259 270 267 257 262 254 266 275 270 275 279 284 294 297 301 302 307 308 312 316 315 308 300
248 247 248 251 256 261 257 252 246 248 253 248 249 232 235 244 278 254 257 255 258 260 265 264 261 265 267 273 272 277 285 289 291 295 300 300 299 302 310 313 315 315 313
256 256 255 256 262 259 255 249 247 248 253 227 216 231 235 264 261 256 258 261 262 259 263 266 266 265 270 274 274 275 278 283 288 289 299 293 294 303 307 309 315 318 318
270 265 263 262 260 259 258 249 245 248 224 226 237 231 243 282 269 259 259 259 258 259 265 266 267 267 268 268 271 272 277 279 281 289 287 293 297 301 303 306 309 316 315
264 262 256 252 256 261 259 241 241 240 234 223 225 242 277 275 264 261 257 265 266 263 264 267 271 273 269 268 269 270 273 273 278 289 292 288 289 291 297 302 305 307 308
255 258 256 252 254 257 246 240 239 215 224 227 232 281 290 272 276 277 273 272 269 267 270 269 265 268 271 264 266 267 263 267 278 273 263 280 283 289 289 294 300 301 303
239 242 242 244 243 238 237 224 223 229 238 246 272 291 284 275 273 273 270 269 268 270 273 273 273 275 271 265 257 263 260 260 260 268 279 282 284 277 283 299 300 300 296
240 226 224 230 223 219 222 228 244 239 247 267 269 293 290 287 289 282 278 278 276 277 276 278 278 271 270 268 262 255 259 263 266 264 267 280 272 279 289 296 299 293 301
210 205 196 187 204 214 230 237 246 258 265 272 275 291 296 299 305 299 293 285 280 279 277 276 280 275 274 276 265 258 253 252 260 267 270 268 277 284 287 287 284 285 296
174 171 175 179 199 218 228 251 265 272 275 277 291 294 302 305 297 295 288 283 280 279 278 281 283 283 279 275 270 257 252 257 259 259 262 273 284 282 283 291 293 297 300
141 128 125 145 177 222 248 271 277 275 282 282 280 277 276 278 277 277 278 279 280 280 283 288 287 280 280 275 266 256 246 248 252 264 267 268 269 276 280 280 286 293 293
157 158 166 186 220 247 248 258 271 275 279 286 292 292 293 290 289 285 286 289 289 288 290 288 286 285 282 271 264 255 254 240 254 263 271 255 258 269 283 290 275 276 303